| time (UTC) | temp F | wind direction | speed MPH | gust MPH | rain 1hr in | rain 24hr in | rain mn in | humidity % | barometer mb |
| 20260510204019 | 87 | 137 | 13.0 | 18.0 | 0.00 | 0.00 | 0.00 | 64 | 1011.1 |
| 20260510203518 | 88 | 147 | 13.0 | 20.0 | 0.00 | 0.00 | 0.00 | 63 | 1011.1 |
| 20260510203018 | 88 | 135 | 14.0 | 20.0 | 0.00 | 0.00 | 0.00 | 63 | 1011.2 |
| 20260510202019 | 88 | 137 | 13.0 | 22.0 | 0.00 | 0.00 | 0.00 | 66 | 1011.3 |
| 20260510201519 | 87 | 153 | 11.0 | 21.0 | 0.00 | 0.00 | 0.00 | 66 | 1011.2 |
| 20260510200519 | 87 | 136 | 13.0 | 18.0 | 0.00 | 0.00 | 0.00 | 61 | 1011.3 |
| 20260510195519 | 89 | 154 | 14.0 | 18.0 | 0.00 | 0.00 | 0.00 | 59 | 1011.3 |
| 20260510195019 | 88 | 135 | 15.0 | 18.0 | 0.00 | 0.00 | 0.00 | 61 | 1011.3 |
| 20260510193518 | 89 | 152 | 13.0 | 22.0 | 0.00 | 0.00 | 0.00 | 63 | 1011.3 |
| 20260510192518 | 89 | 135 | 14.0 | 22.0 | 0.00 | 0.00 | 0.00 | 61 | 1011.3 |
| 20260510192018 | 88 | 139 | 15.0 | 21.0 | 0.00 | 0.00 | 0.00 | 63 | 1011.3 |
| 20260510191519 | 88 | 141 | 14.0 | 21.0 | 0.00 | 0.00 | 0.00 | 63 | 1011.4 |
| 20260510191019 | 88 | 143 | 13.0 | 20.0 | 0.00 | 0.00 | 0.00 | 63 | 1011.4 |
| 20260510190518 | 88 | 123 | 13.0 | 22.0 | 0.00 | 0.00 | 0.00 | 64 | 1011.5 |
| 20260510190018 | 88 | 131 | 12.0 | 20.0 | 0.00 | 0.00 | 0.00 | 62 | 1011.5 |
| 20260510185518 | 88 | 140 | 13.0 | 18.0 | 0.00 | 0.00 | 0.00 | 63 | 1011.4 |
| 20260510185019 | 88 | 145 | 13.0 | 18.0 | 0.00 | 0.00 | 0.00 | 64 | 1011.5 |
| 20260510184519 | 88 | 129 | 12.0 | 16.0 | 0.00 | 0.00 | 0.00 | 63 | 1011.5 |
| 20260510184018 | 88 | 139 | 12.0 | 16.0 | 0.00 | 0.00 | 0.00 | 64 | 1011.5 |
| 20260510183519 | 88 | 124 | 10.0 | 16.0 | 0.00 | 0.00 | 0.00 | 62 | 1011.5 |
| 20260510183019 | 88 | 141 | 11.0 | 16.0 | 0.00 | 0.00 | 0.00 | 61 | 1011.5 |
| 20260510182520 | 88 | 141 | 13.0 | 17.0 | 0.00 | 0.00 | 0.00 | 61 | 1011.5 |
| 20260510182021 | 88 | 144 | 13.0 | 17.0 | 0.00 | 0.00 | 0.00 | 60 | 1011.5 |
| 20260510181518 | 88 | 125 | 12.0 | 15.0 | 0.00 | 0.00 | 0.00 | 60 | 1011.5 |
| 20260510181018 | 88 | 121 | 10.0 | 16.0 | 0.00 | 0.00 | 0.00 | 62 | 1011.6 |
| 20260510180518 | 87 | 147 | 11.0 | 17.0 | 0.00 | 0.00 | 0.00 | 63 | 1011.6 |
| 20260510180017 | 87 | 113 | 8.0 | 15.0 | 0.00 | 0.00 | 0.00 | 63 | 1011.7 |
| 20260510175518 | 87 | 109 | 10.0 | 17.0 | 0.00 | 0.00 | 0.00 | 62 | 1011.7 |
| 20260510175018 | 88 | 133 | 8.0 | 15.0 | 0.00 | 0.00 | 0.00 | 63 | 1011.7 |
| 20260510174520 | 87 | 105 | 10.0 | 16.0 | 0.00 | 0.00 | 0.00 | 63 | 1011.6 |
| 20260510174018 | 88 | 126 | 10.0 | 14.0 | 0.00 | 0.00 | 0.00 | 61 | 1011.6 |
| 20260510173519 | 88 | 105 | 9.0 | 14.0 | 0.00 | 0.00 | 0.00 | 63 | 1011.6 |
| 20260510173021 | 87 | 128 | 9.0 | 14.0 | 0.00 | 0.00 | 0.00 | 65 | 1011.5 |
| 20260510171518 | 86 | 138 | 10.0 | 14.0 | 0.00 | 0.00 | 0.00 | 65 | 1011.7 |
| 20260510170518 | 86 | 109 | 10.0 | 16.0 | 0.00 | 0.00 | 0.00 | 66 | 1011.7 |
| 20260510170017 | 86 | 116 | 9.0 | 15.0 | 0.00 | 0.00 | 0.00 | 66 | 1011.6 |
| 20260510165518 | 86 | 113 | 8.0 | 13.0 | 0.00 | 0.00 | 0.00 | 68 | 1011.7 |
| 20260510165018 | 85 | 113 | 6.0 | 9.0 | 0.00 | 0.00 | 0.00 | 71 | 1011.7 |
| 20260510164019 | 84 | 130 | 8.0 | 13.0 | 0.00 | 0.00 | 0.00 | 70 | 1011.7 |
| 20260510163018 | 84 | 118 | 9.0 | 13.0 | 0.00 | 0.00 | 0.00 | 70 | 1011.7 |
| 20260510162518 | 83 | 115 | 9.0 | 13.0 | 0.00 | 0.00 | 0.00 | 72 | 1011.8 |
| 20260510162018 | 83 | 93 | 6.0 | 12.0 | 0.00 | 0.00 | 0.00 | 73 | 1011.9 |
| 20260510161018 | 82 | 135 | 8.0 | 12.0 | 0.00 | 0.00 | 0.00 | 74 | 1011.9 |
| 20260510160518 | 82 | 147 | 8.0 | 13.0 | 0.00 | 0.00 | 0.00 | 75 | 1011.9 |
| 20260510160018 | 81 | 168 | 6.0 | 10.0 | 0.00 | 0.00 | 0.00 | 78 | 1011.8 |
| 20260510155518 | 81 | 132 | 7.0 | 10.0 | 0.00 | 0.00 | 0.00 | 78 | 1011.9 |
| 20260510155018 | 81 | 149 | 9.0 | 12.0 | 0.00 | 0.00 | 0.00 | 77 | 1011.9 |
| 20260510154517 | 82 | 130 | 8.0 | 10.0 | 0.00 | 0.00 | 0.00 | 77 | 1011.8 |
| 20260510154018 | 81 | 132 | 9.0 | 14.0 | 0.00 | 0.00 | 0.00 | 76 | 1011.8 |
| 20260510153518 | 81 | 130 | 8.0 | 12.0 | 0.00 | 0.00 | 0.00 | 77 | 1011.7 |
| 20260510152518 | 80 | 156 | 6.0 | 10.0 | 0.00 | 0.00 | 0.00 | 81 | 1011.8 |
| 20260510152019 | 80 | 160 | 6.0 | 12.0 | 0.00 | 0.00 | 0.00 | 81 | 1011.7 |
| 20260510151018 | 80 | 154 | 6.0 | 9.0 | 0.00 | 0.00 | 0.00 | 83 | 1011.7 |
| 20260510150518 | 80 | 156 | 5.0 | 9.0 | 0.00 | 0.00 | 0.00 | 83 | 1011.7 |
| 20260510150018 | 79 | 189 | 5.0 | 8.0 | 0.00 | 0.00 | 0.00 | 83 | 1011.7 |
| 20260510145518 | 79 | 152 | 5.0 | 7.0 | 0.00 | 0.00 | 0.00 | 83 | 1011.7 |
| 20260510145018 | 79 | 179 | 5.0 | 6.0 | 0.00 | 0.00 | 0.00 | 83 | 1011.7 |
| 20260510144517 | 79 | 181 | 4.0 | 6.0 | 0.00 | 0.00 | 0.00 | 83 | 1011.7 |
| 20260510144018 | 79 | 187 | 3.0 | 6.0 | 0.00 | 0.00 | 0.00 | 84 | 1011.7 |
| 20260510143518 | 79 | 185 | 3.0 | 7.0 | 0.00 | 0.00 | 0.00 | 84 | 1011.7 |
| 20260510143018 | 79 | 174 | 2.0 | 5.0 | 0.00 | 0.00 | 0.00 | 85 | 1011.7 |
| 20260510142018 | 78 | 189 | 3.0 | 7.0 | 0.00 | 0.00 | 0.00 | 86 | 1011.6 |
| 20260510141518 | 78 | 197 | 3.0 | 8.0 | 0.00 | 0.00 | 0.00 | 86 | 1011.5 |
| 20260510141018 | 78 | 218 | 3.0 | 6.0 | 0.00 | 0.00 | 0.00 | 86 | 1011.4 |
| 20260510140517 | 78 | 173 | 2.0 | 3.0 | 0.00 | 0.00 | 0.00 | 86 | 1011.4 |
| 20260510140017 | 78 | 168 | 2.0 | 5.0 | 0.00 | 0.00 | 0.00 | 87 | 1011.3 |
| 20260510135518 | 78 | 224 | 2.0 | 3.0 | 0.00 | 0.00 | 0.00 | 87 | 1011.2 |
| 20260510135018 | 78 | 211 | 3.0 | 6.0 | 0.00 | 0.00 | 0.00 | 87 | 1011.1 |
| 20260510134518 | 77 | 204 | 5.0 | 7.0 | 0.00 | 0.00 | 0.00 | 88 | 1011.0 |
| 20260510133018 | 76 | 184 | 3.0 | 6.0 | 0.00 | 0.00 | 0.00 | 92 | 1011.1 |
| 20260510132517 | 76 | 163 | 3.0 | 7.0 | 0.00 | 0.00 | 0.00 | 93 | 1011.0 |
| 20260510132018 | 76 | 165 | 5.0 | 7.0 | 0.00 | 0.00 | 0.00 | 94 | 1010.8 |
| 20260510131518 | 76 | 170 | 2.0 | 5.0 | 0.00 | 0.00 | 0.00 | 94 | 1010.7 |
| 20260510131018 | 75 | 174 | 2.0 | 5.0 | 0.00 | 0.00 | 0.00 | 94 | 1010.7 |
| 20260510130518 | 75 | 178 | 2.0 | 5.0 | 0.00 | 0.00 | 0.00 | 94 | 1010.6 |
| 20260510130017 | 75 | 192 | 2.0 | 3.0 | 0.00 | 0.00 | 0.00 | 94 | 1010.6 |
| 20260510124517 | 75 | 188 | 3.0 | 5.0 | 0.00 | 0.00 | 0.00 | 95 | 1010.3 |
| 20260510124017 | 75 | 165 | 3.0 | 3.0 | 0.00 | 0.00 | 0.00 | 95 | 1010.3 |
| 20260510123518 | 75 | 164 | 2.0 | 3.0 | 0.00 | 0.00 | 0.00 | 95 | 1010.2 |
| 20260510123017 | 75 | 201 | 2.0 | 5.0 | 0.00 | 0.00 | 0.00 | 95 | 1010.0 |
| 20260510121518 | 75 | 171 | 3.0 | 5.0 | 0.00 | 0.00 | 0.00 | 95 | 1010.0 |
| 20260510121018 | 74 | 156 | 5.0 | 7.0 | 0.00 | 0.00 | 0.00 | 95 | 1010.1 |
| 20260510120018 | 74 | 138 | 3.0 | 6.0 | 0.00 | 0.00 | 0.00 | 95 | 1010.0 |
| 20260510115517 | 75 | 149 | 3.0 | 5.0 | 0.00 | 0.00 | 0.00 | 95 | 1010.1 |
| 20260510115018 | 74 | 144 | 5.0 | 6.0 | 0.00 | 0.00 | 0.00 | 95 | 1010.1 |
| 20260510114018 | 74 | 103 | 0.0 | 1.0 | 0.00 | 0.00 | 0.00 | 95 | 1010.0 |
| 20260510112518 | 74 | 178 | 1.0 | 3.0 | 0.00 | 0.00 | 0.00 | 95 | 1010.0 |
| 20260510112018 | 74 | 174 | 0.0 | 2.0 | 0.00 | 0.00 | 0.00 | 95 | 1009.9 |
| 20260510111018 | 74 | 203 | 2.0 | 3.0 | 0.00 | 0.01 | 0.00 | 95 | 1009.9 |
| 20260510110518 | 75 | 205 | 2.0 | 3.0 | 0.00 | 0.01 | 0.00 | 95 | 1010.0 |
| 20260510105517 | 75 | 185 | 3.0 | 6.0 | 0.00 | 0.03 | 0.00 | 94 | 1010.0 |
| 20260510105017 | 75 | 187 | 2.0 | 5.0 | 0.00 | 0.04 | 0.00 | 94 | 1010.0 |
| 20260510104517 | 75 | 173 | 3.0 | 6.0 | 0.00 | 0.05 | 0.00 | 94 | 1010.0 |
| 20260510104017 | 75 | 185 | 2.0 | 3.0 | 0.00 | 0.06 | 0.00 | 94 | 1009.9 |
| 20260510103518 | 75 | 154 | 2.0 | 5.0 | 0.00 | 0.06 | 0.00 | 94 | 1009.9 |
| 20260510103019 | 75 | 161 | 4.0 | 6.0 | 0.00 | 0.08 | 0.00 | 94 | 1009.9 |
| 20260510102518 | 75 | 165 | 3.0 | 5.0 | 0.00 | 0.09 | 0.00 | 94 | 1009.9 |
| 20260510102017 | 75 | 150 | 3.0 | 5.0 | 0.00 | 0.11 | 0.00 | 94 | 1009.9 |
| 20260510101517 | 75 | 161 | 4.0 | 6.0 | 0.00 | 0.12 | 0.00 | 94 | 1010.0 |
| 20260510101018 | 75 | 170 | 5.0 | 7.0 | 0.00 | 0.14 | 0.00 | 94 | 1010.0 |
| 20260510100018 | 75 | 174 | 2.0 | 6.0 | 0.00 | 0.16 | 0.00 | 94 | 1010.1 |
| 20260510095517 | 75 | 172 | 3.0 | 7.0 | 0.00 | 0.18 | 0.00 | 94 | 1010.1 |
| 20260510095018 | 74 | 165 | 5.0 | 7.0 | 0.00 | 0.19 | 0.00 | 94 | 1010.1 |
| 20260510094023 | 74 | 178 | 2.0 | 5.0 | 0.00 | 0.20 | 0.00 | 94 | 1010.0 |
| 20260510093518 | 74 | 178 | 2.0 | 5.0 | 0.00 | 0.21 | 0.00 | 94 | 1010.0 |
| 20260510092017 | 73 | 188 | 2.0 | 3.0 | 0.00 | 0.22 | 0.00 | 94 | 1009.9 |
| 20260510091517 | 73 | 184 | 2.0 | 5.0 | 0.00 | 0.22 | 0.00 | 94 | 1010.0 |
| 20260510090517 | 73 | 161 | 3.0 | 6.0 | 0.00 | 0.22 | 0.00 | 94 | 1009.9 |
| 20260510090017 | 73 | 170 | 3.0 | 5.0 | 0.00 | 0.22 | 0.00 | 94 | 1009.8 |
| 20260510085518 | 73 | 186 | 3.0 | 5.0 | 0.00 | 0.22 | 0.00 | 93 | 1009.8 |
| 20260510085018 | 73 | 172 | 2.0 | 3.0 | 0.00 | 0.22 | 0.00 | 93 | 1009.8 |
| 20260510084517 | 73 | 151 | 2.0 | 3.0 | 0.00 | 0.22 | 0.00 | 93 | 1009.9 |
| 20260510084017 | 73 | 167 | 2.0 | 5.0 | 0.00 | 0.22 | 0.00 | 93 | 1009.9 |
| 20260510083518 | 73 | 180 | 3.0 | 6.0 | 0.00 | 0.22 | 0.00 | 93 | 1009.8 |
| 20260510083017 | 73 | 192 | 5.0 | 7.0 | 0.00 | 0.22 | 0.00 | 93 | 1009.8 |
| 20260510082018 | 73 | 198 | 5.0 | 7.0 | 0.00 | 0.22 | 0.00 | 93 | 1009.9 |
| 20260510081517 | 72 | 198 | 5.0 | 7.0 | 0.00 | 0.22 | 0.00 | 93 | 1009.9 |
| 20260510081018 | 72 | 191 | 3.0 | 6.0 | 0.00 | 0.22 | 0.00 | 92 | 1010.0 |
| 20260510080518 | 72 | 184 | 3.0 | 6.0 | 0.00 | 0.22 | 0.00 | 91 | 1010.0 |
| 20260510080017 | 72 | 169 | 3.0 | 6.0 | 0.00 | 0.22 | 0.00 | 91 | 1009.9 |
| 20260510075517 | 72 | 175 | 2.0 | 3.0 | 0.00 | 0.22 | 0.00 | 91 | 1009.9 |
| 20260510075017 | 72 | 178 | 3.0 | 6.0 | 0.00 | 0.22 | 0.00 | 91 | 1009.8 |
| 20260510074517 | 72 | 214 | 5.0 | 7.0 | 0.00 | 0.22 | 0.00 | 91 | 1009.8 |
| 20260510074017 | 72 | 222 | 3.0 | 5.0 | 0.00 | 0.22 | 0.00 | 90 | 1009.8 |
| 20260510073017 | 72 | 223 | 3.0 | 6.0 | 0.00 | 0.22 | 0.00 | 90 | 1009.9 |
| 20260510072517 | 72 | 217 | 5.0 | 6.0 | 0.00 | 0.22 | 0.00 | 90 | 1009.9 |
| 20260510072018 | 72 | 207 | 3.0 | 5.0 | 0.00 | 0.22 | 0.00 | 90 | 1009.9 |
| 20260510071517 | 72 | 193 | 2.0 | 3.0 | 0.00 | 0.22 | 0.00 | 89 | 1010.0 |
| 20260510071017 | 72 | 171 | 2.0 | 5.0 | 0.00 | 0.22 | 0.00 | 89 | 1010.0 |
| 20260510070517 | 72 | 194 | 3.0 | 3.0 | 0.00 | 0.22 | 0.00 | 89 | 1010.0 |
| 20260510070018 | 72 | 182 | 2.0 | 5.0 | 0.00 | 0.22 | 0.00 | 89 | 1010.2 |
| 20260510065018 | 72 | 171 | 2.0 | 3.0 | 0.00 | 0.22 | 0.00 | 88 | 1010.2 |
| 20260510064517 | 72 | 176 | 3.0 | 6.0 | 0.00 | 0.22 | 0.00 | 88 | 1010.3 |
| 20260510063517 | 72 | 139 | 3.0 | 3.0 | 0.00 | 0.22 | 0.00 | 86 | 1010.2 |
| 20260510063018 | 72 | 192 | 2.0 | 3.0 | 0.00 | 0.22 | 0.00 | 86 | 1010.1 |
| 20260510062518 | 72 | 161 | 3.0 | 5.0 | 0.00 | 0.22 | 0.00 | 86 | 1010.3 |
| 20260510062018 | 73 | 157 | 3.0 | 5.0 | 0.00 | 0.22 | 0.00 | 86 | 1010.3 |
| 20260510061521 | 73 | 157 | 5.0 | 6.0 | 0.00 | 0.22 | 0.00 | 86 | 1010.3 |
| 20260510061017 | 73 | 148 | 4.0 | 6.0 | 0.00 | 0.22 | 0.00 | 86 | 1010.4 |
| 20260510060517 | 73 | 123 | 5.0 | 6.0 | 0.00 | 0.22 | 0.00 | 86 | 1010.3 |
| 20260510060016 | 73 | 161 | 5.0 | 7.0 | 0.00 | 0.22 | 0.00 | 85 | 1010.2 |
| 20260510055518 | 73 | 154 | 5.0 | 7.0 | 0.00 | 0.22 | 0.00 | 85 | 1010.3 |
| 20260510055018 | 73 | 156 | 4.0 | 5.0 | 0.00 | 0.22 | 0.00 | 83 | 1010.2 |
| 20260510054517 | 73 | 190 | 3.0 | 6.0 | 0.00 | 0.22 | 0.00 | 83 | 1010.1 |
| 20260510054017 | 73 | 205 | 5.0 | 6.0 | 0.00 | 0.22 | 0.00 | 83 | 1010.0 |
| 20260510053018 | 74 | 208 | 3.0 | 5.0 | 0.00 | 0.22 | 0.00 | 83 | 1010.1 |
| 20260510052517 | 74 | 156 | 3.0 | 5.0 | 0.00 | 0.22 | 0.00 | 83 | 1010.1 |
| 20260510052018 | 74 | 184 | 3.0 | 6.0 | 0.00 | 0.22 | 0.00 | 82 | 1010.0 |
| 20260510051018 | 74 | 141 | 2.0 | 2.0 | 0.00 | 0.22 | 0.00 | 82 | 1010.0 |
| 20260510050518 | 74 | 158 | 1.0 | 3.0 | 0.00 | 0.22 | 0.00 | 82 | 1009.9 |
| 20260510050017 | 74 | 199 | 3.0 | 6.0 | 0.00 | 0.22 | 0.00 | 82 | 844.7 |
| 20260510045517 | 74 | 211 | 5.0 | 6.0 | 0.00 | 0.22 | 0.22 | 82 | 1009.7 |
| 20260510045017 | 75 | 210 | 3.0 | 5.0 | 0.00 | 0.22 | 0.22 | 81 | 1009.8 |
| 20260510044519 | 75 | 188 | 2.0 | 5.0 | 0.00 | 0.22 | 0.22 | 80 | 1009.7 |
| 20260510044017 | 75 | 204 | 3.0 | 3.0 | 0.00 | 0.22 | 0.22 | 80 | 1009.7 |
| 20260510043017 | 76 | 191 | 3.0 | 5.0 | 0.00 | 0.22 | 0.22 | 79 | 1009.8 |
| 20260510042517 | 76 | 199 | 2.0 | 6.0 | 0.00 | 0.22 | 0.22 | 79 | 1009.8 |
| 20260510042018 | 76 | 195 | 3.0 | 5.0 | 0.00 | 0.22 | 0.22 | 78 | 1009.8 |
| 20260510040517 | 76 | 200 | 3.0 | 5.0 | 0.00 | 0.22 | 0.22 | 78 | 1009.5 |
| 20260510040016 | 77 | 184 | 2.0 | 6.0 | 0.00 | 0.22 | 0.22 | 77 | 1009.5 |
| 20260510035517 | 77 | 162 | 5.0 | 8.0 | 0.00 | 0.22 | 0.22 | 78 | 1009.6 |
| 20260510035018 | 77 | 162 | 6.0 | 9.0 | 0.00 | 0.22 | 0.22 | 77 | 1009.5 |
| 20260510034517 | 77 | 162 | 7.0 | 9.0 | 0.00 | 0.22 | 0.22 | 76 | 1009.5 |
| 20260510034017 | 77 | 147 | 8.0 | 10.0 | 0.00 | 0.22 | 0.22 | 75 | 1009.5 |
| 20260510033518 | 77 | 141 | 9.0 | 12.0 | 0.00 | 0.22 | 0.22 | 74 | 1009.5 |
| 20260510033018 | 78 | 157 | 8.0 | 12.0 | 0.00 | 0.22 | 0.22 | 72 | 1009.4 |
| 20260510032517 | 78 | 158 | 6.0 | 9.0 | 0.00 | 0.22 | 0.22 | 70 | 1009.4 |
| 20260510031516 | 78 | 145 | 7.0 | 9.0 | 0.00 | 0.22 | 0.22 | 70 | 1009.4 |
| 20260510031017 | 78 | 135 | 6.0 | 9.0 | 0.00 | 0.22 | 0.22 | 70 | 1009.3 |
| 20260510030517 | 78 | 136 | 7.0 | 9.0 | 0.00 | 0.22 | 0.22 | 71 | 1009.3 |
| 20260510030017 | 78 | 131 | 6.0 | 8.0 | 0.00 | 0.22 | 0.22 | 71 | 1009.2 |
| 20260510025519 | 78 | 135 | 6.0 | 9.0 | 0.00 | 0.22 | 0.22 | 71 | 1009.1 |
| 20260510025017 | 78 | 123 | 6.0 | 9.0 | 0.00 | 0.22 | 0.22 | 72 | 1009.1 |
| 20260510024517 | 78 | 121 | 6.0 | 8.0 | 0.00 | 0.22 | 0.22 | 73 | 1009.0 |
| 20260510024018 | 79 | 133 | 6.0 | 8.0 | 0.00 | 0.22 | 0.22 | 73 | 1008.8 |
| 20260510023517 | 79 | 119 | 5.0 | 7.0 | 0.00 | 0.22 | 0.22 | 71 | 1008.7 |
| 20260510023017 | 79 | 125 | 5.0 | 8.0 | 0.00 | 0.22 | 0.22 | 70 | 1008.6 |
| 20260510022518 | 79 | 129 | 6.0 | 8.0 | 0.00 | 0.22 | 0.22 | 70 | 1008.6 |
| 20260510022017 | 80 | 143 | 6.0 | 9.0 | 0.00 | 0.22 | 0.22 | 69 | 1008.5 |
| 20260510021018 | 80 | 132 | 5.0 | 7.0 | 0.00 | 0.22 | 0.22 | 65 | 1008.4 |
| 20260510020517 | 81 | 146 | 6.0 | 9.0 | 0.00 | 0.22 | 0.22 | 63 | 1008.2 |
| 20260510020017 | 81 | 157 | 7.0 | 10.0 | 0.00 | 0.22 | 0.22 | 63 | 1008.1 |
| 20260510015516 | 81 | 150 | 7.0 | 12.0 | 0.00 | 0.22 | 0.22 | 62 | 1008.0 |
| 20260510015017 | 81 | 140 | 8.0 | 12.0 | 0.00 | 0.22 | 0.22 | 61 | 1007.8 |
| 20260510014516 | 81 | 155 | 8.0 | 10.0 | 0.00 | 0.22 | 0.22 | 61 | 1007.7 |
| 20260510013018 | 82 | 160 | 7.0 | 13.0 | 0.00 | 0.22 | 0.22 | 60 | 1007.4 |
| 20260510012516 | 83 | 161 | 6.0 | 13.0 | 0.00 | 0.22 | 0.22 | 59 | 1007.4 |
| 20260510012017 | 83 | 161 | 8.0 | 14.0 | 0.00 | 0.22 | 0.22 | 58 | 1007.3 |
| 20260510011516 | 83 | 168 | 7.0 | 14.0 | 0.00 | 0.22 | 0.22 | 58 | 1007.3 |
| 20260510010518 | 84 | 154 | 10.0 | 16.0 | 0.00 | 0.22 | 0.22 | 58 | 1007.3 |
| 20260510010017 | 84 | 163 | 9.0 | 14.0 | 0.00 | 0.22 | 0.22 | 60 | 1007.3 |
| 20260510005518 | 84 | 167 | 8.0 | 14.0 | 0.00 | 0.22 | 0.22 | 60 | 1007.2 |
| 20260510005018 | 85 | 158 | 9.0 | 14.0 | 0.00 | 0.22 | 0.22 | 59 | 1007.2 |
| 20260510004517 | 85 | 154 | 9.0 | 15.0 | 0.00 | 0.22 | 0.22 | 59 | 1007.3 |
| 20260510004019 | 85 | 151 | 11.0 | 16.0 | 0.00 | 0.22 | 0.22 | 59 | 1007.4 |
| 20260510003518 | 85 | 152 | 12.0 | 16.0 | 0.00 | 0.22 | 0.22 | 57 | 1007.3 |
| 20260510003018 | 86 | 148 | 12.0 | 16.0 | 0.00 | 0.22 | 0.22 | 56 | 1007.2 |
| 20260510002517 | 86 | 155 | 11.0 | 17.0 | 0.00 | 0.22 | 0.22 | 56 | 1007.2 |
| 20260510002017 | 86 | 153 | 12.0 | 20.0 | 0.00 | 0.22 | 0.22 | 55 | 1007.2 |
| 20260510001517 | 87 | 157 | 12.0 | 16.0 | 0.00 | 0.22 | 0.22 | 54 | 1007.1 |
| 20260510001018 | 87 | 165 | 9.0 | 17.0 | 0.00 | 0.22 | 0.22 | 53 | 1007.1 |
| 20260510000518 | 87 | 173 | 9.0 | 18.0 | 0.00 | 0.22 | 0.22 | 53 | 1007.2 |
| 20260510000018 | 87 | 158 | 12.0 | 17.0 | 0.00 | 0.22 | 0.22 | 52 | 1007.2 |
| 20260509235520 | 88 | 162 | 9.0 | 18.0 | 0.00 | 0.22 | 0.22 | 52 | 1007.1 |
| 20260509235018 | 88 | 152 | 11.0 | 17.0 | 0.00 | 0.22 | 0.22 | 51 | 1007.0 |
| 20260509234517 | 88 | 158 | 10.0 | 16.0 | 0.00 | 0.22 | 0.22 | 53 | 1007.0 |
| 20260509234017 | 88 | 148 | 12.0 | 18.0 | 0.00 | 0.22 | 0.22 | 51 | 1007.0 |
| 20260509233518 | 88 | 160 | 13.0 | 18.0 | 0.00 | 0.22 | 0.22 | 50 | 1007.0 |
| 20260509233018 | 89 | 156 | 13.0 | 17.0 | 0.00 | 0.22 | 0.22 | 49 | 1007.1 |
| 20260509232018 | 90 | 147 | 10.0 | 18.0 | 0.00 | 0.22 | 0.22 | 48 | 1007.0 |
| 20260509231516 | 91 | 151 | 11.0 | 17.0 | 0.00 | 0.22 | 0.22 | 46 | 1007.0 |
| 20260509231018 | 91 | 144 | 9.0 | 13.0 | 0.00 | 0.22 | 0.22 | 44 | 1007.0 |
| 20260509230517 | 92 | 167 | 6.0 | 12.0 | 0.00 | 0.22 | 0.22 | 43 | 1007.0 |
| 20260509225517 | 92 | 191 | 5.0 | 9.0 | 0.00 | 0.22 | 0.22 | 42 | 1007.0 |
| 20260509224517 | 92 | 203 | 9.0 | 14.0 | 0.00 | 0.22 | 0.22 | 41 | 1007.0 |
| 20260509224017 | 92 | 195 | 6.0 | 12.0 | 0.00 | 0.22 | 0.22 | 41 | 1007.1 |
| 20260509223517 | 92 | 166 | 7.0 | 9.0 | 0.00 | 0.22 | 0.22 | 42 | 1007.0 |
| 20260509223017 | 92 | 180 | 4.0 | 10.0 | 0.00 | 0.22 | 0.22 | 42 | 1007.0 |
| 20260509222517 | 92 | 186 | 4.0 | 8.0 | 0.00 | 0.22 | 0.22 | 43 | 1007.0 |
| 20260509222017 | 92 | 192 | 6.0 | 10.0 | 0.00 | 0.22 | 0.22 | 42 | 1006.9 |
| 20260509221017 | 92 | 215 | 6.0 | 10.0 | 0.00 | 0.22 | 0.22 | 41 | 1007.0 |
| 20260509220517 | 92 | 161 | 6.0 | 12.0 | 0.00 | 0.22 | 0.22 | 42 | 1007.0 |
| 20260509220016 | 92 | 201 | 8.0 | 12.0 | 0.00 | 0.22 | 0.22 | 40 | 1007.0 |
| 20260509215517 | 92 | 209 | 5.0 | 9.0 | 0.00 | 0.22 | 0.22 | 42 | 1006.9 |
| 20260509215017 | 92 | 216 | 3.0 | 7.0 | 0.00 | 0.22 | 0.22 | 41 | 1006.9 |
| 20260509214516 | 92 | 161 | 4.0 | 7.0 | 0.00 | 0.22 | 0.22 | 41 | 1006.9 |
| 20260509214017 | 92 | 221 | 6.0 | 9.0 | 0.00 | 0.22 | 0.22 | 39 | 1007.0 |
| 20260509213517 | 92 | 198 | 3.0 | 8.0 | 0.00 | 0.22 | 0.22 | 42 | 1006.9 |
| 20260509213018 | 92 | 203 | 6.0 | 9.0 | 0.00 | 0.22 | 0.22 | 41 | 1007.0 |
| 20260509212516 | 92 | 181 | 4.0 | 9.0 | 0.00 | 0.22 | 0.22 | 42 | 1007.0 |
| 20260509212017 | 91 | 202 | 5.0 | 9.0 | 0.00 | 0.22 | 0.22 | 43 | 1007.0 |
| 20260509211516 | 91 | 194 | 3.0 | 9.0 | 0.00 | 0.22 | 0.22 | 43 | 1007.0 |
| 20260509211017 | 91 | 193 | 3.0 | 8.0 | 0.00 | 0.22 | 0.22 | 43 | 1007.0 |
| 20260509210517 | 91 | 224 | 6.0 | 10.0 | 0.00 | 0.22 | 0.22 | 41 | 1007.1 |
| 20260509210016 | 91 | 198 | 6.0 | 9.0 | 0.00 | 0.22 | 0.22 | 40 | 1007.1 |
| 20260509205517 | 91 | 202 | 4.0 | 8.0 | 0.00 | 0.22 | 0.22 | 44 | 1007.1 |
| 20260509205017 | 91 | 189 | 5.0 | 8.0 | 0.00 | 0.22 | 0.22 | 44 | 1007.2 |